WetterOnline ( https://www.wetteronline.ch )

Wetter aktuell Waldmünchen

Aktuelles Wetter: Waldmünchen (499m)

6-stündlich | Neueste Meldungen
Ortszeit Temperatur Wetter
Di, 02.06. 20:00 17.9° C wolkenlos
Di, 02.06. 14:00 21.2° C leicht bewölkt
Di, 02.06. 8:00 12.9° C wolkenlos
Di, 02.06. 2:00 8.9° C wolkenlos
Mo, 01.06. 20:00 19.4° C wolkenlos
Mo, 01.06. 14:00 20.3° C wolkenlos
Mo, 01.06. 8:00 10.0° C wolkenlos
Mo, 01.06. 2:00 6.3° C wolkenlos
Ortszeit Temperatur Wetter
Di, 02.06. 20:00 17.9° C wolkenlos
Di, 02.06. 19:50 17.9° C wolkenlos
Di, 02.06. 19:40 18.1° C leicht bewölkt
Di, 02.06. 19:30 20.1° C wolkig
Di, 02.06. 19:20 20.1° C wolkig
Di, 02.06. 19:10 20.5° C leicht bewölkt
Di, 02.06. 19:00 21.5° C leicht bewölkt
Di, 02.06. 18:30 21.3° C fast wolkenlos
Di, 02.06. 18:00 21.3° C leicht bewölkt
Di, 02.06. 17:30 21.1° C wolkig
Di, 02.06. 17:00 22.6° C wolkenlos
Ortszeit Relative Feuchte Sichtweite
Di, 02.06. 20:00 52% 55 km
Di, 02.06. 14:00 36% >70 km
Di, 02.06. 8:00 67% 65 km
Di, 02.06. 2:00 85% 50 km
Mo, 01.06. 20:00 43% >70 km
Mo, 01.06. 14:00 44% 50 km
Mo, 01.06. 8:00 82% 60 km
Mo, 01.06. 2:00 97% 21 km
Ortszeit Relative Feuchte Sichtweite
Di, 02.06. 20:00 52% 55 km
Di, 02.06. 19:50 52% -
Di, 02.06. 19:40 54% -
Di, 02.06. 19:30 44% 50 km
Di, 02.06. 19:20 44% -
Di, 02.06. 19:10 42% -
Di, 02.06. 19:00 36% >70 km
Di, 02.06. 18:30 36% >70 km
Di, 02.06. 18:00 37% >70 km
Di, 02.06. 17:30 36% >70 km
Di, 02.06. 17:00 33% >70 km
Ortszeit Niederschlagsmenge Niederschlagsart
Di, 02.06. 20:00 0.0 l/m2 in 12 Std. -
Di, 02.06. 14:00 0.0 l/m2 in 6 Std. -
Di, 02.06. 8:00 0.0 l/m2 in 12 Std. -
Di, 02.06. 2:00 0.0 l/m2 in 6 Std. -
Mo, 01.06. 20:00 0.0 l/m2 in 12 Std. -
Mo, 01.06. 14:00 0.0 l/m2 in 6 Std. -
Mo, 01.06. 8:00 0.0 l/m2 in 12 Std. -
Mo, 01.06. 2:00 0.0 l/m2 in 6 Std. -
Ortszeit Niederschlagsmenge Niederschlagsart
Di, 02.06. 20:00 0.0 l/m2 in 1 Std. -
Di, 02.06. 19:50 keine Meldung -
Di, 02.06. 19:40 keine Meldung -
Di, 02.06. 19:30 0.0 l/m2 in 1 Std. -
Di, 02.06. 19:20 keine Meldung -
Di, 02.06. 19:10 keine Meldung -
Di, 02.06. 19:00 0.0 l/m2 in 1 Std. -
Di, 02.06. 18:30 0.0 l/m2 in 1 Std. -
Di, 02.06. 18:00 0.0 l/m2 in 1 Std. -
Di, 02.06. 17:30 0.0 l/m2 in 1 Std. -
Di, 02.06. 17:00 0.0 l/m2 in 1 Std. -
Ortszeit Stärke Spitze Richtung
km/h Bft. km/h Grad Sektor
Di, 02.06. 20:00 9 2 28 40° NO
Di, 02.06. 14:00 7 2 29 80° O
Di, 02.06. 8:00 4 1 11 70° O
Di, 02.06. 2:00 7 2 25 110° O
Mo, 01.06. 20:00 11 2 39 60° NO
Mo, 01.06. 14:00 11 2 29 80° O
Mo, 01.06. 8:00 2 1 6 220° SW
Mo, 01.06. 2:00 4 1 11 100° O
Ortszeit Stärke Spitze Richtung
km/h Bft. km/h Grad Sektor
Di, 02.06. 20:00 9 2 13 40° NO
Di, 02.06. 19:50 9 2 - 40° NO
Di, 02.06. 19:40 7 2 - 40° NO
Di, 02.06. 19:30 4 1 7 30° NO
Di, 02.06. 19:20 4 1 - 30° NO
Di, 02.06. 19:10 4 1 - 30° NO
Di, 02.06. 19:00 6 1 20 110° O
Di, 02.06. 18:30 11 2 22 40° NO
Di, 02.06. 18:00 6 1 24 50° NO
Di, 02.06. 17:30 18 3 25 40° NO
Di, 02.06. 17:00 7 2 29 350° N
Ortszeit Untergrenze Bedeckung Gattung
total tief tief mittel hoch
Di, 02.06. 20:00 - 0/8 0/8 - - -
Di, 02.06. 14:00 1800 m 4/8 4/8 - - -
Di, 02.06. 8:00 - 0/8 0/8 - - -
Di, 02.06. 2:00 - 0/8 0/8 - - -
Mo, 01.06. 20:00 - 0/8 0/8 - - -
Mo, 01.06. 14:00 - 0/8 0/8 - - -
Mo, 01.06. 8:00 - 0/8 0/8 - - -
Mo, 01.06. 2:00 - 0/8 0/8 - - -
Ortszeit Bedeckungsgrad in Achtel und Wolkenuntergrenze
Di, 02.06. 20:00 keine Wolken
Di, 02.06. 19:50 keine Wolken
Di, 02.06. 19:40 2(2700m)
Di, 02.06. 19:30 6(2700m) 3(3000m)
Di, 02.06. 19:20 6(2700m)
Di, 02.06. 19:10 4(2700m)
Di, 02.06. 19:00 3(2700m)
Di, 02.06. 18:30 1(3000m)
Di, 02.06. 18:00 2(3300m)
Di, 02.06. 17:30 5(2400m) 5(3000m)
Di, 02.06. 17:00 keine Wolken
Ortszeit Luftdruck NN (hPa) Tendenz (hPa in 3 Std.)
Di, 02.06. 20:00 1012 - 1,7
Di, 02.06. 14:00 1016 - 1,5
Di, 02.06. 8:00 1019 + 0,1
Di, 02.06. 2:00 1021 - 0,3
Mo, 01.06. 20:00 1018 - 0,4
Mo, 01.06. 14:00 1019 - 1,0
Mo, 01.06. 8:00 1022 + 0,6
Mo, 01.06. 2:00 1023 - 0,2
Ortszeit Luftdruck NN (hPa) Tendenz (hPa in 3 Std.)
Di, 02.06. 20:00 1012 - 1,7
Di, 02.06. 19:50 1012 keine Meldung
Di, 02.06. 19:40 1012 keine Meldung
Di, 02.06. 19:30 1012 - 1,9
Di, 02.06. 19:20 1012 keine Meldung
Di, 02.06. 19:10 1012 keine Meldung
Di, 02.06. 19:00 1012 - 2,0
Di, 02.06. 18:30 1012 - 2,3
Di, 02.06. 18:00 1013 - 2,1
Di, 02.06. 17:30 1013 - 2,1
Di, 02.06. 17:00 1013 - 2,1
Ortszeit Schneehöhe (cm)
Di, 02.06. 20:00 -
Di, 02.06. 14:00 -
Di, 02.06. 8:00 -
Di, 02.06. 2:00 -
Mo, 01.06. 20:00 -
Mo, 01.06. 14:00 -
Mo, 01.06. 8:00 -
Mo, 01.06. 2:00 -
Ortszeit Schneehöhe (cm)
Di, 02.06. 20:00 -
Di, 02.06. 19:50 -
Di, 02.06. 19:40 -
Di, 02.06. 19:30 -
Di, 02.06. 19:20 -
Di, 02.06. 19:10 -
Di, 02.06. 19:00 -
Di, 02.06. 18:30 -
Di, 02.06. 18:00 -
Di, 02.06. 17:30 -
Di, 02.06. 17:00 -
Link zu dieser Seite / Seite empfehlen

Das Wetter in ...